Location: Newark
(38.1091°N, 103.8677°W)
Time: 17:40:51
(UTC+00:00)

Envisat - Visible Passes

Search period start: 23 October 2019 00:00
Search period end: 02 November 2019 00:00
Orbit: 764 x 766 km, 98.1° (Epoch: 23 October)

Date Brightness Start Highest point End Pass type
(mag) Time Alt. Az. Time Alt. Az. Time Alt. Az.
23 Oct 3.2 00:36:20 10° SSE 00:41:13 50° ENE 00:46:07 10° N visible
23 Oct 5.8 02:17:12 10° SW 02:20:29 17° W 02:23:47 10° NW visible
23 Oct 6.0 12:47:47 10° NE 12:51:26 20° E 12:55:03 10° SE visible
24 Oct 4.4 01:38:44 10° SSW 01:43:28 39° W 01:48:14 10° NNW visible
25 Oct 3.0 01:01:34 10° SSE 01:06:38 89° ENE 01:11:45 10° NNW visible
26 Oct 3.5 00:25:19 10° SE 00:30:00 39° ENE 00:34:42 10° N visible
26 Oct 5.4 02:05:14 10° SW 02:09:08 22° W 02:13:02 10° NW visible
26 Oct 6.2 12:37:08 10° NE 12:40:04 15° E 12:42:58 10° SE visible
27 Oct 3.9 01:27:15 10° S 01:32:09 50° W 01:37:07 10° NNW visible
28 Oct 2.9 00:50:21 10° SSE 00:55:24 70° ENE 01:00:28 10° N visible
28 Oct 6.2 02:33:02 10° WSW 02:34:53 12° W 02:36:43 10° WNW visible
29 Oct 5.0 01:53:28 10° SSW 01:57:47 28° W 02:02:08 10° NW visible
29 Oct 6.5 12:26:58 10° ENE 12:28:40 12° E 12:30:23 10° ESE visible
30 Oct 3.4 01:15:51 10° S 01:20:52 65° W 01:25:57 10° NNW visible
31 Oct 3.1 00:39:14 10° SSE 00:44:10 55° ENE 00:49:07 10° N visible
31 Oct 5.9 02:20:31 10° SW 02:23:29 16° W 02:26:29 10° NW visible
31 Oct 5.9 12:50:34 10° NE 12:54:26 22° E 12:58:16 10° SE visible
01 Nov 4.6 01:41:49 10° SSW 01:46:27 36° W 01:51:07 10° NNW visible
